SCP
0 0 0 0 0 0 0 0 0 0 0 0 0 0 0 0 0 0 0 0 0 0 0 0 0 0 0 0 0 0 0 0 0 0 0 0 0 0 0 0 0 0 0 0 0 0 0 -0 -0
0 0 0 0 -0 0 0 0 0 0 0 0 0 0 0 0 0 0 0 0 0 0 0 0 0 0 0 0 0 0 0 0 0 0 0 0 0 0 0 0 0 0 0 0 0 0 0 -0 -0
0 0 0 0 -0 0 0 0 0 0 0 0 0 0 0 0 0 0 0 0 0 0 0 0 0 0 0 0 0 0 0 0 0 0 0 0 0 0 0 0 0 0 0 0 0 0 0 -0 -0
0 0 0 0 -0 0 -0 -0 0 0 0 0 0 0 0 0 0 0 0 0 0 0 0 0 0 0 0 0 0 0 0 0 0 0 0 0 0 0 0 0 0 0 0 0 0 0 0 0 0
0 0 0 0 -0 -0 -0 0 0 0 0 0 0 0 0 0 0 0 0 0 0 0 0 0 0 0 0 0 0 0 1 1 1 1 0 0 0 0 0 0 1 1 0 0 0 0 0 0 0
0 0 0 0 -0 -0 -0 0 0 0 0 0 0 0 0 0 1 1 0 0 0 0 0 0 0 0 0 0 1 1 1 1 1 1 1 0 0 0 0 0 1 0 0 0 0 0 0 0 0
0 0 0 0 -0 -0 -0 0 0 0 0 0 0 0 0 0 1 1 1 0 0 0 0 0 0 0 0 0 1 1 1 1 1 1 1 0 0 0 0 0 0 0 0 0 0 0 0 0 0
0 0 0 -0 -0 -0 -0 0 0 0 0 0 0 0 0 0 1 1 1 0 0 0 0 0 0 0 0 0 0 1 1 1 1 1 1 1 0 0 0 0 0 0 0 0 0 0 0 -0 -0
0 0 0 -0 0 0 0 0 0 0 0 0 0 0 0 1 1 1 1 1 0 0 0 0 0 0 0 0 0 0 0 1 1 1 1 1 0 0 0 0 0 0 0 0 0 -0 -0 -0 -0
0 0 0 -0 0 0 0 0 0 0 0 0 0 1 1 1 2 2 1 1 0 0 0 0 0 0 0 0 0 0 0 0 0 0 0 0 0 0 0 0 0 0 0 -0 -0 -0 -0 -0 -0
0 0 0 0 0 0 0 0 0 0 0 0 1 1 1 2 2 2 1 1 0 0 0 0 0 0 0 0 0 0 0 0 0 0 0 0 0 0 0 0 0 0 -0 -0 -0 -0 -0 -0 -0
0 0 0 0 0 0 0 0 0 0 0 0 1 1 1 1 2 2 1 1 1 0 0 0 0 0 0 0 0 0 0 0 0 0 0 0 0 0 0 0 0 0 -0 -0 -0 -0 -0 -0 -0
0 0 0 0 0 0 0 0 0 0 0 0 1 1 1 1 1 1 1 1 1 1 0 0 0 0 0 0 0 0 0 0 0 0 0 0 0 0 0 0 0 0 0 0 0 0 0 0 0
0 0 0 0 0 0 0 0 0 0 0 0 0 0 1 1 1 1 1 1 1 1 0 0 0 0 0 0 0 0 0 0 0 0 0 0 0 0 0 0 0 0 0 0 0 0 0 0 0
0 0 0 0 0 0 0 0 0 0 0 0 0 0 1 1 1 1 1 1 1 1 1 0 0 0 0 0 0 0 0 0 0 0 0 0 0 0 0 0 0 0 0 0 0 0 0 0 0
0 0 0 0 0 0 0 0 0 0 0 0 1 1 1 1 1 1 1 1 1 1 1 0 0 0 0 0 0 0 0 0 0 0 0 0 0 0 0 0 0 0 0 0 0 0 0 0 0
0 0 0 0 0 0 0 0 0 0 0 0 1 1 1 1 1 1 1 1 1 1 0 0 0 0 0 0 0 0 0 0 0 0 0 0 0 0 0 0 0 0 0 0 0 0 0 0 0
0 0 0 0 0 0 0 0 0 0 1 1 1 2 2 2 2 1 1 1 1 0 0 0 0 0 0 0 0 0 0 0 0 0 0 0 0 0 0 0 0 0 0 0 0 0 0 0 0
0 0 0 0 0 0 0 0 0 0 1 1 2 3 3 3 2 1 1 1 0 0 0 0 0 0 0 0 0 0 0 0 0 0 0 0 0 0 0 0 0 0 0 0 0 0 0 0 0
0 0 0 0 0 0 0 0 0 0 1 2 3 3 4 3 2 2 1 0 0 0 0 0 0 0 0 0 0 0 0 0 0 0 0 0 0 0 0 0 0 0 0 0 0 0 0 0 0
0 0 0 0 0 0 0 0 0 0 1 2 3 3 3 3 2 1 1 1 0 0 0 0 0 0 0 0 0 0 0 0 0 0 0 0 0 0 0 0 0 0 0 0 0 0 0 0 0
0 0 0 0 0 0 0 0 0 0 1 2 2 2 2 2 2 1 1 0 0 0 0 0 0 0 0 0 0 0 0 0 0 0 0 0 0 0 0 0 0 0 0 0 0 0 0 0 0
0 0 0 0 0 0 0 0 0 1 1 2 2 2 1 1 1 1 0 0 0 0 0 0 0 0 0 0 0 0 0 0 0 0 0 0 0 0 0 0 0 0 0 0 0 0 0 0 0
0 0 0 0 0 0 0 0 0 0 1 2 2 1 1 1 1 0 0 0 0 0 0 0 0 0 0 0 0 0 0 0 0 0 0 0 0 0 0 0 0 0 0 0 0 0 0 0 0
0 0 0 0 0 0 0 0 0 0 1 2 1 1 1 0 0 0 0 0 0 0 0 0 0 0 0 0 0 0 0 0 0 0 0 0 0 0 0 0 0 0 0 0 0 0 0 0 0
0 0 0 0 0 0 0 0 0 0 1 1 1 1 0 0 0 0 0 0 0 0 0 0 0 0 0 0 0 0 0 0 0 0 0 0 0 0 0 0 0 0 0 0 0 0 0 0 0
0 0 0 0 0 0 0 0 0 0 1 1 0 0 0 0 0 0 0 0 0 0 0 0 0 0 0 0 0 0 0 0 0 0 0 0 0 0 0 0 0 0 0 0 0 0 0 0 0
0 0 0 0 0 0 0 0 0 1 1 1 0 0 0 0 0 0 0 0 0 0 0 0 0 0 0 0 0 0 0 0 0 0 0 0 0 0 0 0 0 0 0 0 0 0 0 0 0
0 0 0 0 0 0 0 0 0 1 1 1 0 0 0 0 0 0 0 0 0 0 0 0 0 0 0 0 0 0 0 0 0 0 0 0 0 0 0 0 0 0 0 0 0 0 0 0 0
0 0 0 0 0 0 0 0 0 1 1 0 0 0 0 0 0 0 0 0 0 0 0 0 0 0 0 0 0 0 0 0 0 0 0 0 0 0 0 0 0 0 0 0 0 0 0 0 0
Wind_Speed
4 4 0 4 7 5 3 7 4 1 3 3 7 11 12 7 4 5 3 12 13 9 7 9 12 13 13 13 12 12 12 12 12 12 12 11 10 9 8 8 8 8 9 10 9 9 8 7 6
3 2 3 5 6 2 6 6 2 1 6 7 8 10 10 7 7 11 7 11 12 10 6 8 12 13 13 13 12 12 13 13 12 11 11 11 11 10 9 9 9 9 9 9 8 7 7 6 4
2 1 4 5 3 3 5 3 5 2 5 6 6 6 7 8 9 8 9 13 11 9 7 9 13 12 12 12 12 12 13 13 12 10 9 8 8 9 9 10 11 10 9 9 9 7 6 5 4
2 4 5 4 3 7 6 8 4 5 3 4 7 7 6 5 6 11 15 14 12 9 7 8 12 12 11 11 11 12 12 12 11 9 8 6 5 5 6 8 9 9 8 8 8 7 5 4 3
3 4 3 1 6 7 8 11 8 7 5 4 9 8 5 4 15 19 16 14 12 8 6 6 10 10 10 10 10 10 11 10 9 8 7 6 5 4 5 7 9 9 8 7 6 5 4 2 2
4 4 2 4 6 5 6 9 7 7 7 6 8 7 4 8 15 16 14 12 11 10 7 6 9 11 9 9 9 8 9 9 9 8 7 6 4 4 5 7 8 8 7 6 5 4 3 2 3
3 3 2 5 6 5 7 7 9 9 8 7 9 9 6 8 11 13 13 12 10 9 7 5 5 7 9 8 8 7 7 7 7 7 6 5 4 4 6 7 7 7 6 5 4 3 3 4 4
4 2 3 4 5 6 6 5 8 12 8 8 8 11 9 12 12 14 13 11 9 6 6 5 5 5 4 5 7 7 6 6 6 6 6 5 4 5 6 6 7 7 6 5 5 4 4 4 5
4 1 4 5 5 4 4 5 4 6 10 5 5 8 12 20 18 16 12 9 7 6 4 5 5 5 4 4 5 6 7 6 6 5 6 5 2 2 3 5 7 8 7 6 6 6 5 5 6
5 4 9 7 6 2 2 6 7 7 11 6 6 8 17 21 20 19 17 14 10 8 5 3 5 5 5 4 3 3 3 4 4 3 4 3 3 3 4 6 8 8 8 7 8 8 7 5 3
5 7 9 10 8 1 2 1 4 12 8 12 16 18 20 20 20 20 18 15 11 8 5 4 4 4 5 3 3 2 2 2 3 4 4 3 3 2 2 2 3 3 5 3 4 5 3 3 4
5 9 9 9 5 2 2 1 2 9 14 17 21 24 22 21 20 19 17 14 9 7 5 4 4 3 4 4 4 3 2 2 2 3 4 3 2 3 3 2 2 2 2 2 2 2 4 5 6
5 9 8 8 5 1 2 2 2 3 9 12 16 19 19 18 16 14 15 15 12 9 6 5 5 4 4 5 4 4 4 3 3 3 2 3 3 3 3 2 3 3 3 3 3 3 4 5 5
7 7 11 9 4 0 2 2 2 1 10 13 14 14 13 14 15 14 15 15 14 12 11 9 8 7 5 4 3 3 3 3 3 2 2 3 2 2 2 1 2 3 3 3 3 3 3 3 2
4 7 10 6 2 1 5 5 5 1 12 13 11 11 11 11 14 16 18 18 17 15 13 10 8 6 5 4 3 2 2 3 3 2 2 3 3 3 2 2 2 1 1 1 1 2 2 3 3
5 5 5 9 3 3 4 4 8 4 14 11 11 12 12 11 12 15 18 18 16 14 11 7 5 5 6 5 5 4 4 4 3 3 4 6 6 5 4 4 4 4 4 3 3 4 4 4 4
4 2 6 9 5 3 1 5 5 9 19 16 15 15 14 12 12 12 14 13 11 9 8 6 6 6 6 6 5 6 6 6 5 6 6 7 8 8 5 4 3 4 4 4 4 3 3 4 5
4 4 7 8 8 5 5 7 3 9 21 19 18 17 15 14 10 9 9 9 9 8 8 7 7 6 6 5 5 6 7 7 7 7 7 7 7 7 5 4 5 4 3 3 3 3 3 3 4
5 7 10 13 10 5 6 6 8 12 20 19 17 17 17 14 12 10 9 9 9 9 9 8 9 7 6 5 4 4 5 4 5 5 7 7 7 7 6 5 5 4 3 4 4 3 3 4 4
7 9 12 13 8 1 2 3 5 11 16 19 20 19 19 18 14 12 10 8 9 9 9 9 9 9 8 5 4 4 4 4 3 4 5 6 7 7 7 6 5 5 4 6 5 4 3 3 4
11 9 11 11 7 2 5 4 4 6 13 15 16 18 18 19 17 14 12 10 10 10 9 10 9 10 9 8 5 5 4 4 4 5 5 6 7 7 7 7 6 6 5 4 4 4 3 2 2
12 14 11 9 5 4 5 4 3 6 10 13 15 15 16 16 16 15 14 13 12 11 11 11 10 10 9 8 8 8 6 4 4 3 4 5 7 7 7 6 6 5 4 3 3 3 1 1 2
13 15 11 8 5 3 0 5 6 7 10 11 13 14 14 15 16 16 15 15 13 12 11 9 9 9 8 8 8 8 6 4 3 4 5 6 5 6 6 5 4 4 2 2 2 2 2 1 2
11 8 2 3 4 3 6 6 7 10 17 19 16 16 16 16 16 16 15 14 12 10 9 8 8 7 7 7 7 7 7 5 5 5 5 4 3 4 6 5 4 3 3 3 2 3 3 3 3
5 4 1 4 4 7 6 4 8 10 17 22 22 19 17 17 17 16 15 12 10 9 8 7 7 6 5 6 6 6 6 5 5 3 4 4 3 3 5 5 5 4 4 4 3 3 4 4 4
7 10 10 8 7 7 3 3 6 5 16 17 18 18 18 17 16 16 14 12 10 9 8 7 7 6 6 6 6 6 5 4 3 3 2 2 2 3 4 5 5 5 5 5 4 4 4 5 5
6 7 10 9 6 3 3 1 4 9 17 19 20 19 19 18 17 17 14 11 10 9 7 7 7 6 6 6 6 5 4 3 2 2 2 2 2 3 4 5 5 5 5 5 5 3 4 5 4
9 8 6 7 7 5 4 6 10 15 18 18 18 17 17 16 16 15 12 10 9 8 7 7 7 6 5 5 4 3 2 2 1 1 3 3 4 4 5 5 4 4 4 4 3 2 3 5 5
3 2 5 5 6 8 6 9 11 23 23 21 17 16 17 16 15 12 10 10 9 8 7 6 6 5 5 4 3 3 1 1 2 3 4 4 3 4 4 4 2 2 2 2 2 3 5 6 7
6 7 6 5 6 6 5 10 6 19 16 16 17 17 16 15 13 13 12 11 9 7 6 6 5 5 4 3 2 0 1 2 3 4 4 4 4 4 4 3 1 1 1 0 2 4 6 7 9
Wind_Direction
294 274 52 49 50 44 279 255 245 229 94 93 104 103 99 92 124 144 113 127 128 138 146 139 132 129 128 131 135 134 135 133 132 130 128 126 123 119 114 110 110 114 120 124 127 131 135 140 144
281 296 56 56 77 19 280 248 237 192 134 131 96 94 89 80 91 109 119 129 136 143 145 142 138 135 133 134 136 137 138 137 135 133 135 136 137 136 134 132 132 133 136 139 144 150 155 163 170
279 50 79 69 97 194 279 232 178 140 140 130 97 73 84 116 115 119 139 142 142 139 140 144 139 136 135 135 136 139 140 140 139 137 138 140 142 145 148 149 148 147 150 157 162 168 175 183 193
50 46 57 79 229 237 240 259 189 127 96 102 109 78 66 102 118 126 140 142 134 132 135 138 136 134 133 134 135 139 141 142 142 141 138 136 137 144 151 153 152 151 156 164 167 168 174 186 199
67 75 58 304 237 236 227 223 181 141 132 99 94 86 60 61 115 128 140 137 128 120 117 128 132 130 129 130 132 137 141 142 143 142 139 135 130 131 144 155 157 158 163 164 161 158 164 198 253
55 70 78 268 263 271 229 198 148 119 121 113 99 97 95 124 129 137 137 128 125 126 121 123 132 131 129 130 132 135 140 145 148 148 143 143 147 154 156 160 162 164 163 158 158 168 185 228 258
110 92 236 260 286 288 217 177 142 136 144 144 127 106 126 148 140 133 125 119 118 124 130 132 133 136 136 132 131 134 142 150 153 151 149 150 155 161 167 170 167 161 156 161 170 197 227 254 276
152 79 281 270 268 249 198 157 144 138 147 135 124 134 158 167 141 127 119 116 119 127 139 142 136 130 127 131 141 143 146 153 160 160 157 159 163 167 172 167 170 169 174 182 194 216 243 276 302
137 94 261 254 267 244 185 133 153 111 119 128 128 156 156 149 137 129 122 119 133 147 154 134 134 134 136 143 162 160 162 168 171 172 170 157 157 166 171 181 183 184 190 198 206 220 246 275 300
136 183 237 232 276 257 203 153 148 94 108 109 102 113 137 146 145 145 146 152 162 169 167 140 144 152 157 169 155 165 173 178 172 173 174 168 185 204 200 204 196 198 205 211 219 232 248 264 289
188 216 259 274 261 149 64 304 131 123 147 165 158 151 151 153 154 156 158 160 167 163 162 160 166 167 174 169 164 179 184 189 197 200 195 188 187 206 200 198 218 224 224 231 250 256 259 262 265
245 265 266 261 260 84 97 30 90 154 186 179 163 158 159 159 161 160 155 155 153 152 164 153 159 171 193 180 184 192 189 192 204 202 194 184 184 192 189 200 219 232 237 234 259 269 270 267 265
264 267 289 279 262 187 76 62 104 172 185 166 158 155 160 159 155 149 145 143 142 143 143 141 149 174 186 180 194 189 188 183 179 172 175 181 181 200 206 214 228 241 240 233 242 252 260 260 259
262 290 308 297 267 272 53 342 54 150 151 155 155 153 151 147 142 137 135 135 139 137 143 156 162 168 157 153 164 167 162 153 146 144 128 118 130 143 154 197 230 252 245 224 219 227 237 252 276
314 338 326 309 326 337 53 352 318 180 145 155 148 129 121 127 134 138 140 140 142 143 149 156 155 141 119 109 104 107 113 122 127 128 99 90 103 112 106 76 41 339 311 290 309 335 354 1 359
6 5 316 294 297 314 75 275 287 87 118 128 124 112 102 105 124 136 139 142 143 145 144 143 120 92 80 76 69 66 69 73 64 53 44 42 41 44 50 45 29 18 27 24 27 22 10 5 356
10 329 289 298 303 320 100 239 263 111 110 115 117 112 105 107 116 131 137 139 135 129 115 92 71 67 71 73 70 67 64 56 51 49 46 41 42 45 54 53 40 40 45 34 23 20 10 353 345
261 284 293 291 295 322 275 232 192 117 113 116 118 114 110 110 115 121 119 110 98 85 77 70 62 57 66 70 68 64 59 54 54 52 44 40 35 35 37 33 27 32 42 30 25 21 12 2 344
243 274 283 283 288 310 263 197 152 129 118 121 121 118 116 113 113 110 105 99 86 69 66 63 61 49 56 60 60 60 56 45 47 50 43 37 30 22 24 13 5 9 25 27 25 17 15 13 356
252 268 277 286 289 235 87 92 127 133 132 133 132 129 127 125 121 117 109 95 84 81 75 69 64 58 57 64 68 79 85 63 56 41 35 29 28 20 22 15 11 15 24 28 28 31 22 4 16
256 243 249 256 286 28 100 38 58 85 113 119 123 128 131 132 131 127 118 106 96 88 81 78 71 68 65 68 69 63 53 41 28 25 23 19 24 24 24 26 31 28 32 27 24 41 35 354 347
252 249 237 243 247 252 145 166 211 128 120 129 133 134 133 132 129 126 120 110 102 97 90 84 77 73 67 67 71 70 67 55 28 22 22 15 20 23 28 36 31 27 29 26 6 39 9 331 302
238 254 241 232 226 262 153 155 223 148 146 153 146 139 134 132 129 125 120 114 108 102 95 89 83 76 71 70 71 71 63 53 35 28 21 12 8 17 21 29 24 19 14 1 346 329 311 267 254
242 243 264 59 80 269 248 186 224 191 178 161 152 143 138 134 128 121 117 114 110 104 98 94 88 79 73 73 71 75 72 62 47 27 14 2 354 357 3 9 5 349 335 319 306 295 298 287 277
252 175 357 323 331 254 256 222 237 208 169 158 152 148 143 139 135 130 126 123 121 116 112 107 101 90 81 78 73 74 77 71 57 31 19 10 353 339 339 346 332 325 315 309 309 307 306 301 300
242 169 176 201 225 264 319 243 290 164 141 144 146 145 145 143 140 136 134 134 132 128 122 115 105 95 83 79 75 69 68 63 45 31 23 356 319 295 305 318 319 316 316 326 330 327 324 326 314
219 203 189 165 183 193 239 137 35 107 137 150 153 152 150 147 142 138 138 138 132 125 120 117 108 94 84 86 88 72 65 61 38 7 340 307 297 302 321 321 322 325 335 345 352 353 344 337 323
195 183 118 137 168 221 227 204 187 175 169 165 161 156 149 144 142 141 140 133 121 116 112 107 106 105 103 99 94 92 73 50 4 328 314 305 301 305 317 323 333 350 13 28 30 0 337 330 310
270 195 146 145 163 175 217 246 206 185 178 169 161 153 147 145 144 139 130 120 113 109 110 110 107 106 104 107 105 93 41 328 318 306 298 298 296 304 309 316 340 31 58 43 15 334 324 316 306
230 225 181 180 227 182 186 253 245 181 170 158 151 149 145 140 134 126 119 114 111 111 109 103 100 95 101 114 111 114 298 312 317 310 306 305 300 300 299 297 283 184 151 150 332 323 323 311 309